TIANWANG 1B (TW-1B)
1 40927U 15051C   19333.52050020  .00011728  00000-0  16090-3 0  9995
2 40927  97.1183  18.6679 0008891 126.6781 343.1797 15.57452693235480
TIANWANG 1A (TW-1A)
1 40928U 15051D   19333.44081422  .00002599  00000-0  63662-4 0  9991
2 40928  97.1305   1.0619 0010551 189.4214 270.0790 15.41595265234397
LAPAN A2
1 40931U 15052B   19324.69785557 -.00020420  00000-0 -29507-2 0  9996
2 40931   5.9963  31.2247 0013118 192.9224 166.9491 14.76583141224210
LQSAT
1 40958U 15057A   19333.19688121  .00000020  00000-0  10632-4 0  9997
2 40958  97.8812  37.8193 0019521  77.8344 282.5049 14.73098094222871
CHUBUSAT 2
1 41338U 16012B   19332.90611735 +.00000284 +00000-0 +15297-4 0  9991
2 41338 031.0020 187.4801 0013976 279.7925 080.1132 15.00214216207447
CHUBUSAT 3
1 41339U 16012C   19332.92326703  .00000313  00000-0  17538-4 0  9995
2 41339  31.0116 185.2548 0013979 287.8825  72.0290 15.00385193207448
OUFTI-1
1 41458U 16025C   19332.83857922 +.00001927 +00000-0 +10048-3 0  9993
2 41458 098.1000 067.9932 0165701 168.0062 192.5187 15.06246784197127
E-STAR-2
1 41459U 16025D   19333.49323104  .00002124  00000-0  11105-3 0  9992
2 41459  98.0999  68.2421 0166996 167.5141 193.0300 15.05857416197199
AAUSAT 4
1 41460U 16025E   19333.52274788  .00002939  00000-0  14802-3 0  9992
2 41460  98.0975  69.9541 0157002 158.3504 202.4392 15.07926270197356
NUSAT 1
1 41557U 16033B   19333.43708799  .00001121  00000-0  44232-4 0  9995
2 41557  97.4133  59.9703 0015323  80.8382 279.4589 15.27565937195084
BEESAT 4
1 41619U 16040W   19333.21369198  .00001257  00000-0  55527-4 0  9993
2 41619  97.3484  32.2427 0011781 160.7987 199.3696 15.23500434178752
PRATHAM
1 41783U 16059A   19333.40096986  .00000050  00000-0  18977-4 0  9996
2 41783  98.0472  29.1882 0032649 227.5394 132.3048 14.63023351169488
ALSAT 1N
1 41789U 16059G   19333.38640354  .00000077  00000-0  23644-4 0  9999
2 41789  98.0501  31.5322 0027729 215.7586 144.1759 14.64279342169606
NAYIF 1
1 42017U 17008BX  19332.87475831 +.00001446 +00000-0 +59164-4 0  9995
2 42017 097.3860 038.1593 0005140 326.9610 033.1306 15.25934999154805
MAX VALIER SAT
1 42778U 17036P   19332.89184223 +.00000841 +00000-0 +39461-4 0  9990
2 42778 097.3346 026.7968 0012615 019.0896 341.0810 15.22274370135063
